This demonstration page uses our WeatherBlox Daily Observations layout. Learn more.

Left ArrowRight Arrow

39.51506, -84.39828

Hourly Observations for February 7, 2016

Temp ( °F °C ) Dew Point ( °F °C ) Humidity (%) Winds ( mph kmh ) Pressure ( in mb ) Visibility ( mi km ) Precip ( " mm )
12:15 am 00:15 Clear 29 -1.5 26 -3.6 86 86 Calm 30.27 1025 10 16 0.00 0.00
12:35 am 00:35 Clear 29 -1.5 26 -3.5 86 86 Calm 30.24 1024 10 16 0.00 0.00
12:55 am 00:55 Clear 29 -1.5 26 -3.5 86 86 Calm 30.24 1024 10 16 0.00 0.00
1:15 am 01:15 Clear 29 -1.5 26 -3.5 86 86 Calm 30.24 1024 10 16 0.00 0.00
1:35 am 01:35 Clear 29 -1.5 26 -3.6 86 86 Calm 30.24 1024 10 16 0.00 0.00
1:55 am 01:55 Clear 29 -1.5 26 -3.6 86 86 Calm 30.24 1024 10 16 0.00 0.00
2:15 am 02:15 Clear 29 -1.5 26 -3.5 86 86 Calm 30.21 1023 10 16 0.00 0.00
2:35 am 02:35 Clear 29 -1.5 26 -3.5 86 86 Calm 30.21 1023 10 16 0.00 0.00
2:55 am 02:55 Clear 29 -1.5 26 -3.5 86 86 Calm 30.21 1023 10 16 0.00 0.00
3:15 am 03:15 Clear 29 -1.5 26 -3.5 86 86 Calm 30.21 1023 10 16 0.00 0.00
3:35 am 03:35 Clear 29 -1.5 26 -3.3 88 88 Calm 30.21 1023 10 16 0.00 0.00
3:55 am 03:55 Clear 29 -1.5 26 -3.3 88 88 Calm 30.21 1023 10 16 0.00 0.00
4:15 am 04:15 Clear 28 -2 25 -3.7 88 88 Calm 30.21 1023 7 11 0.00 0.00
4:35 am 04:35 Clear 27 -2.8 24 -4.6 88 88 Calm 30.18 1022 10 16 0.00 0.00
4:55 am 04:55 Clear 27 -2.8 24 -4.5 88 88 Calm 30.18 1022 10 16 0.00 0.00
5:15 am 05:15 Clear 27 -2.8 24 -4.6 88 88 Calm 30.18 1022 7 11 0.00 0.00
5:35 am 05:35 Clear with Mist and Fog 27 -2.8 24 -4.5 88 88 Calm 30.18 1022 5 8 0.00 0.00
5:55 am 05:55 Clear 27 -2.8 24 -4.5 88 88 Calm 30.15 1021 10 16 0.00 0.00
6:15 am 06:15 Clear 29 -1.7 26 -3.4 88 88 Calm 30.15 1021 10 16 0.00 0.00
6:35 am 06:35 Clear 27 -2.8 24 -4.5 88 88 WSW 3 6 30.15 1021 10 16 0.00 0.00
6:55 am 06:55 Clear 27 -2.8 24 -4.6 88 88 WSW 3 6 30.15 1021 10 16 0.00 0.00
7:15 am 07:15 Clear 27 -2.8 24 -4.5 88 88 SSW 3 6 30.15 1021 10 16 0.00 0.00
7:35 am 07:35 Clear 29 -1.5 26 -3.2 88 88 WSW 3 6 30.15 1021 7 11 0.00 0.00
7:55 am 07:55 Sunny 29 -1.8 26 -3.6 88 88 SW 3 6 30.15 1021 7 11 0.00 0.00
8:15 am 08:15 Sunny 29 -1.5 26 -3.3 88 88 SW 5 7 30.15 1021 10 16 0.00 0.00
8:35 am 08:35 Sunny 31 -0.6 28 -2.5 87 87 SW 3 6 30.15 1021 10 16 0.00 0.00
8:55 am 08:55 Sunny 34 1.2 30 -1 85 85 SW 3 6 30.12 1020 10 16 0.00 0.00
9:15 am 09:15 Sunny 34 1.2 29 -1.5 82 82 WSW 3 6 30.12 1020 10 16 0.00 0.00
9:35 am 09:35 Sunny 37 2.6 30 -1.1 77 77 SW 5 7 30.12 1020 10 16 0.00 0.00
9:55 am 09:55 Sunny 39 4.1 27 -2.6 62 62 SW 7 11 30.12 1020 10 16 0.00 0.00
10:15 am 10:15 Sunny 42 5.3 27 -2.8 56 56 SSW 3 6 30.09 1019 10 16 0.00 0.00
10:35 am 10:35 Sunny 43 6.1 25 -4 49 49 SW 8 13 30.09 1019 10 16 0.00 0.00
10:55 am 10:55 Sunny 44 6.7 24 -4.3 46 46 SSW 10 17 30.06 1018 10 16 0.00 0.00
11:15 am 11:15 Sunny 47 8.2 23 -4.9 39 39 SW 12 19 30.06 1018 10 16 0.00 0.00
11:35 am 11:35 Sunny 47 8.2 22 -5.3 38 38 SW 12 19 30.06 1018 10 16 0.00 0.00
11:55 am 11:55 Sunny 49 9.6 23 -4.8 36 36 SW 12 19 30.06 1018 10 16 0.00 0.00
12:15 pm 12:15 Sunny 49 9.6 21 -6.3 32 32 SW 14 22 30.03 1017 10 16 0.00 0.00
12:35 pm 12:35 Sunny 49 9.6 20 -6.5 32 32 SW 13 20 30.03 1017 10 16 0.00 0.00
12:55 pm 12:55 Sunny 52 10.9 21 -6.1 30 30 SW 13 20 30.00 1016 10 16 0.00 0.00
1:15 pm 13:15 Sunny 55 12.5 21 -6.1 27 27 SW 17 28 30.00 1016 10 16 0.00 0.00
1:35 pm 13:35 Sunny 55 12.5 19 -7.5 24 24 SW 20 31 29.97 1015 10 16 0.00 0.00
1:55 pm 13:55 Sunny 55 12.5 17 -8.1 23 23 SW 21 33 29.97 1015 10 16 0.00 0.00
2:15 pm 14:15 Sunny 55 12.5 17 -8.6 22 22 SW 16 26 29.94 1014 10 16 0.00 0.00
2:35 pm 14:35 Sunny 55 12.5 15 -9.4 21 21 SW 22 35 29.94 1014 10 16 0.00 0.00
2:55 pm 14:55 Sunny 55 12.5 14 -10 20 20 SW 23 37 29.91 1013 10 16 0.00 0.00
3:15 pm 15:15 Sunny 55 12.7 14 -9.9 20 20 SW 22 35 29.91 1013 10 16 0.00 0.00
3:35 pm 15:35 Sunny 55 12.5 14 -10.1 20 20 SW 22 35 29.91 1013 10 16 0.00 0.00
3:55 pm 15:55 Sunny 55 12.5 15 -9.3 21 21 SW 17 28 29.91 1013 10 16 0.00 0.00
4:15 pm 16:15 Sunny 55 12.5 16 -9.1 21 21 SW 18 30 29.88 1012 10 16 0.00 0.00
4:35 pm 16:35 Sunny 55 12.5 15 -9.5 21 21 SW 17 28 29.88 1012 10 16 0.00 0.00
4:55 pm 16:55 Sunny 55 12.5 16 -8.8 22 22 SSW 18 30 29.88 1012 10 16 0.00 0.00
5:15 pm 17:15 Sunny 55 12.5 17 -8.1 23 23 SW 15 24 29.88 1012 10 16 0.00 0.00
5:35 pm 17:35 Sunny 52 11 18 -7.8 26 26 SW 10 17 29.88 1012 10 16 0.00 0.00
5:55 pm 17:55 Sunny 49 9.7 19 -7.3 30 30 SW 9 15 29.88 1012 10 16 0.00 0.00
6:15 pm 18:15 Clear 49 9.6 18 -7.8 29 29 SSW 9 15 29.88 1012 10 16 0.00 0.00
6:35 pm 18:35 Clear 49 9.6 17 -8.4 27 27 SSW 9 15 29.88 1012 10 16 0.00 0.00
6:55 pm 18:55 Clear 49 9.6 17 -8.3 28 28 SSW 9 15 29.88 1012 10 16 0.00 0.00
7:15 pm 19:15 Partly Cloudy 49 9.6 19 -7 31 31 SSW 7 11 29.88 1012 10 16 0.00 0.00
7:35 pm 19:35 Partly Cloudy 49 9.6 19 -7.1 30 30 SSW 8 13 29.88 1012 10 16 0.00 0.00
7:55 pm 19:55 Clear 49 9.6 19 -7.1 30 30 SSW 8 13 29.85 1011 10 16 0.00 0.00
8:15 pm 20:15 Partly Cloudy 49 9.6 19 -7 31 31 SSW 8 13 29.85 1011 10 16 0.00 0.00
8:35 pm 20:35 Cloudy 49 9.6 24 -4.5 37 37 SSW 5 7 29.85 1011 10 16 0.00 0.00
8:55 pm 20:55 Cloudy 47 8.2 23 -5.1 39 39 SSW 7 11 29.85 1011 10 16 0.00 0.00
9:15 pm 21:15 Cloudy 48 9 22 -5.6 35 35 SSW 8 13 29.85 1011 10 16 0.00 0.00
9:35 pm 21:35 Cloudy 49 9.6 21 -6.2 33 33 SSW 8 13 29.85 1011 10 16 0.00 0.00
9:55 pm 21:55 Cloudy 49 9.6 20 -6.4 32 32 SSW 9 15 29.85 1011 10 16 0.00 0.00
10:15 pm 22:15 Cloudy 49 9.6 21 -6.1 33 33 SSW 9 15 29.83 1010 10 16 0.00 0.00
10:35 pm 22:35 Cloudy 49 9.6 21 -6.2 33 33 SSW 7 11 29.83 1010 10 16 0.00 0.00
10:55 pm 22:55 Cloudy 49 9.6 22 -5.8 34 34 SW 8 13 29.83 1010 10 16 0.00 0.00
11:15 pm 23:15 Cloudy 49 9.6 23 -4.8 36 36 SW 6 9 29.80 1009 10 16 0.00 0.00
11:35 pm 23:35 Cloudy 48 8.8 25 -3.8 41 41 SSW 6 9 29.80 1009 10 16 0.00 0.00
11:55 pm 23:55 Cloudy 47 8.2 24 -4.2 42 42 SSW 6 9 29.80 1009 10 16 0.00 0.00

Powered by AerisWeather